START_TIME,STEP,MOV.,M29,t_acc.,H22,t_acc.,H26,t_acc.,H30,t_acc.
1980-11-15 06:00:20.480 ,2,0,0.,24.0,0.,24.0,0.,24.0,0.,24.0
1980-11-15 06:00:44.480 ,1,1,0.,24.0,0.,24.0,0.,24.0,0.,24.0
1980-11-15 06:01:08.480 ,1,0,0.,24.0,0.,24.0,0.,24.0,0.,24.0
1980-11-15 06:01:32.480 ,0,1,0.,24.0,0.,24.0,0.,24.0,0.,24.0
1980-11-15 06:01:56.480 ,0,0,0.,24.0,0.,24.0,0.,24.0,0.,24.0
1980-11-15 06:02:20.480 ,0,1,0.,24.0,0.,24.0,0.,24.0,0.,24.0
1980-11-15 06:02:44.480 ,0,0,0.,24.0,0.,24.0,0.,24.0,0.,24.0
1980-11-15 06:03:08.480 ,1,1,0.,24.0,0.,24.0,0.,24.0,0.,24.0
1980-11-15 06:03:32.480 ,1,0,0.,24.0,0.,24.0,0.,24.0,0.,24.0
1980-11-15 06:03:56.480 ,2,1,0.,24.0,0.,24.0,0.,24.0,0.,24.0
1980-11-15 06:04:20.480 ,2,0,0.,24.0,0.,24.0,0.,24.0,0.,24.0
1980-11-15 06:04:44.480 ,3,1,0.,24.0,0.,24.0,0.,24.0,0.,24.0
1980-11-15 06:05:08.480 ,3,0,0.,24.0,0.,24.0,0.,24.0,0.,24.0
1980-11-15 06:05:32.480 ,4,1,0.,24.0,0.,24.0,0.,24.0,0.,24.0
1980-11-15 06:05:56.480 ,4,0,0.,24.0,0.,24.0,0.,24.0,0.,24.0
1980-11-15 06:06:20.480 ,5,1,0.,24.0,0.,24.0,0.,24.0,0.,24.0
1980-11-15 06:06:44.480 ,5,0,0.,24.0,0.,24.0,0.,24.0,0.,24.0
1980-11-15 06:07:08.480 ,6,1,0.,24.0,0.,24.0,0.,24.0,0.,24.0
1980-11-15 06:07:32.480 ,6,0,0.,24.0,0.,24.0,0.,24.0,0.,24.0
1980-11-15 06:07:56.480 ,7,1,0.,24.0,0.,24.0,0.,24.0,0.,24.0
1980-11-15 06:08:20.480 ,7,0,0.,24.0,0.,24.0,0.,24.0,0.,24.0
1980-11-15 06:08:44.480 ,7,1,0.,24.0,0.,24.0,0.,24.0,0.,24.0
1980-11-15 06:09:08.480 ,7,0,0.,24.0,0.,24.0,0.,24.0,0.,24.0
1980-11-15 06:09:32.480 ,6,1,0.,24.0,0.,24.0,0.,24.0,0.,24.0
1980-11-15 06:09:56.480 ,6,0,0.,24.0,0.,24.0,0.,24.0,0.,24.0
1980-11-15 06:10:20.480 ,5,1,0.,24.0,0.,24.0,0.,24.0,0.,24.0
1980-11-15 06:10:44.480 ,5,0,0.,24.0,0.,24.0,0.,24.0,0.,24.0
1980-11-15 06:11:08.480 ,4,1,0.,24.0,0.,24.0,0.,24.0,0.,24.0
1980-11-15 06:11:32.480 ,4,0,0.,24.0,0.,24.0,0.,24.0,0.,24.0
1980-11-15 06:11:56.480 ,3,1,0.,24.0,0.,24.0,0.,24.0,0.,24.0
1980-11-15 06:12:20.480 ,3,0,0.,24.0,0.,24.0,0.,24.0,0.,24.0
1980-11-15 06:12:44.480 ,2,1,0.,24.0,0.,24.0,0.,24.0,0.,24.0
1980-11-15 06:13:08.480 ,2,0,0.,24.0,0.,24.0,0.,24.0,0.,24.0
1980-11-15 06:13:32.480 ,1,1,0.,24.0,0.,24.0,0.,24.0,0.,24.0
1980-11-15 06:13:56.480 ,1,0,0.,24.0,0.,24.0,0.,24.0,0.,24.0
1980-11-15 06:14:20.480 ,0,1,0.,24.0,0.,24.0,0.,24.0,0.,24.0
1980-11-15 06:14:44.480 ,0,0,0.,24.0,0.,24.0,0.,24.0,0.,24.0
1980-11-15 06:15:08.480 ,0,1,0.,24.0,0.,24.0,0.,24.0,0.,24.0
1980-11-15 06:15:32.480 ,0,0,0.,24.0,0.,24.0,0.,24.0,0.,24.0
1980-11-15 06:15:56.480 ,1,1,0.,24.0,0.,24.0,0.,24.0,0.,24.0
1980-11-15 06:16:20.480 ,1,0,0.,24.0,0.,24.0,0.,24.0,0.,24.0
1980-11-15 06:16:44.480 ,2,1,0.,24.0,0.,24.0,0.,24.0,0.,24.0
1980-11-15 06:17:08.480 ,2,0,0.,24.0,0.,24.0,0.,24.0,0.,24.0
1980-11-15 06:17:32.480 ,3,1,0.,24.0,0.,24.0,0.,24.0,0.,24.0
1980-11-15 06:17:56.480 ,3,0,0.,24.0,0.,24.0,0.,24.0,0.,24.0
1980-11-15 06:18:20.480 ,4,1,0.,24.0,0.,24.0,0.,24.0,0.,24.0
1980-11-15 06:18:44.480 ,4,0,0.,24.0,0.,24.0,0.,24.0,0.,24.0
1980-11-15 06:19:08.480 ,5,1,0.,24.0,0.,24.0,0.,24.0,0.,24.0
1980-11-15 06:19:32.480 ,5,0,0.,24.0,0.,24.0,0.,24.0,0.,24.0
1980-11-15 06:19:56.480 ,6,1,0.,24.0,0.,24.0,0.,24.0,0.,24.0
1980-11-15 06:20:20.480 ,6,0,0.,24.0,0.,24.0,0.,24.0,0.,24.0
1980-11-15 06:20:44.480 ,7,1,0.,24.0,0.,24.0,0.,24.0,0.,24.0
1980-11-15 06:21:08.480 ,7,0,0.,24.0,0.,24.0,0.,24.0,0.,24.0
1980-11-15 06:21:32.480 ,7,1,0.,24.0,0.,24.0,0.,24.0,0.,24.0
1980-11-15 06:21:56.480 ,7,0,0.,24.0,0.,24.0,0.,24.0,0.,24.0
1980-11-15 06:22:20.480 ,6,1,0.,24.0,0.,24.0,0.,24.0,0.,24.0
1980-11-15 06:22:44.480 ,6,0,0.,24.0,0.,24.0,0.,24.0,0.,24.0
1980-11-15 06:23:08.480 ,5,1,0.,24.0,0.,24.0,0.,24.0,0.,24.0
1980-11-15 06:23:32.480 ,5,0,0.,24.0,0.,24.0,0.,24.0,0.,24.0
1980-11-15 06:23:56.480 ,4,1,0.,24.0,0.,24.0,0.,24.0,0.,24.0
1980-11-15 06:24:20.480 ,4,0,0.,24.0,0.,24.0,0.,24.0,0.,24.0
1980-11-15 06:24:44.480 ,3,1,0.,24.0,0.,24.0,0.,24.0,0.,24.0
1980-11-15 06:25:08.480 ,3,0,0.,24.0,0.,24.0,0.,24.0,0.,24.0
1980-11-15 06:25:32.480 ,2,1,0.,24.0,0.,24.0,0.,24.0,0.,24.0
1980-11-15 06:25:56.480 ,2,0,0.,24.0,0.,24.0,0.,24.0,0.,24.0
1980-11-15 06:26:20.480 ,1,1,0.,24.0,0.,24.0,0.,24.0,0.,24.0
1980-11-15 06:26:44.480 ,1,0,0.,24.0,0.,24.0,0.,24.0,0.,24.0
1980-11-15 06:27:08.480 ,0,1,0.,24.0,0.,24.0,0.,24.0,0.,24.0
1980-11-15 06:27:32.480 ,0,0,0.,24.0,0.,24.0,0.,24.0,0.,24.0
1980-11-15 06:27:56.480 ,0,1,0.,24.0,0.,24.0,0.,24.0,0.,24.0
1980-11-15 06:28:20.480 ,0,0,0.,24.0,0.,24.0,0.,24.0,0.,24.0
1980-11-15 06:28:44.480 ,1,1,0.,24.0,0.,24.0,0.,24.0,0.,24.0
1980-11-15 06:29:08.480 ,1,0,0.,24.0,0.,24.0,0.,24.0,0.,24.0
1980-11-15 06:29:32.480 ,2,1,0.,24.0,0.,24.0,0.,24.0,0.,24.0
1980-11-15 06:29:56.480 ,2,0,0.,24.0,0.,24.0,0.,24.0,0.,24.0
1980-11-15 06:30:20.480 ,3,1,0.,24.0,0.,24.0,0.,24.0,0.,24.0
1980-11-15 06:30:44.480 ,3,0,0.,24.0,0.,24.0,0.,24.0,0.,24.0
1980-11-15 06:31:08.480 ,4,1,0.,24.0,0.,24.0,0.,24.0,0.,24.0
1980-11-15 06:31:32.480 ,4,0,0.,24.0,0.,24.0,0.,24.0,0.,24.0
1980-11-15 06:31:56.480 ,5,1,0.,24.0,0.,24.0,0.,24.0,0.,24.0
1980-11-15 06:32:20.480 ,5,0,0.,24.0,0.,24.0,0.,24.0,0.,24.0
1980-11-15 06:32:44.480 ,6,1,0.,24.0,0.,24.0,0.,24.0,0.,24.0
1980-11-15 06:33:08.480 ,6,0,0.,24.0,0.,24.0,0.,24.0,0.,24.0
1980-11-15 06:33:32.480 ,7,1,0.,24.0,0.,24.0,0.,24.0,0.,24.0
1980-11-15 06:33:56.480 ,7,0,0.,24.0,0.,24.0,0.,24.0,0.,24.0
1980-11-15 06:34:20.480 ,7,1,0.,24.0,0.,24.0,0.,24.0,0.,24.0
1980-11-15 06:34:44.480 ,7,0,0.,24.0,0.,24.0,0.,24.0,0.,24.0
1980-11-15 06:35:08.480 ,6,1,0.,24.0,0.,24.0,0.,24.0,0.,24.0
1980-11-15 06:35:32.480 ,6,0,0.,24.0,0.,24.0,0.,24.0,0.,24.0
1980-11-15 06:35:56.480 ,5,1,0.,24.0,0.,24.0,0.,24.0,0.,24.0
1980-11-15 06:36:20.480 ,5,0,0.,24.0,0.,24.0,0.,24.0,0.,24.0
1980-11-15 06:36:44.480 ,4,1,0.,24.0,0.,24.0,0.,24.0,0.,24.0
1980-11-15 06:37:08.480 ,4,0,0.,24.0,0.,24.0,0.,24.0,0.,24.0
1980-11-15 06:37:32.480 ,3,1,0.,24.0,0.,24.0,0.,24.0,0.,24.0
1980-11-15 06:37:56.480 ,3,0,0.,24.0,0.,24.0,0.,24.0,0.,24.0
1980-11-15 06:38:20.480 ,2,1,0.,24.0,0.,24.0,0.,24.0,0.,24.0
1980-11-15 06:38:44.480 ,2,0,0.,24.0,0.,24.0,0.,24.0,0.,24.0
1980-11-15 06:39:08.480 ,1,1,0.,24.0,0.,24.0,0.,24.0,0.,24.0
1980-11-15 06:39:32.480 ,1,0,0.,24.0,0.,24.0,0.,24.0,0.,24.0
1980-11-15 06:39:56.480 ,0,1,0.,24.0,0.,24.0,0.,24.0,0.,24.0
1980-11-15 06:40:20.480 ,0,0,0.,24.0,0.,24.0,0.,24.0,0.,24.0
1980-11-15 06:40:44.480 ,0,1,0.,24.0,0.,24.0,0.,24.0,0.,24.0
1980-11-15 06:41:08.480 ,0,0,0.,24.0,0.,24.0,0.,24.0,0.,24.0
1980-11-15 06:41:32.480 ,1,1,1.,24.0,0.,24.0,0.,24.0,0.,24.0
1980-11-15 06:41:56.480 ,1,0,0.,24.0,0.,24.0,0.,24.0,0.,24.0
1980-11-15 06:42:20.480 ,2,1,0.,24.0,0.,24.0,0.,24.0,0.,24.0
1980-11-15 06:42:44.480 ,2,0,0.,24.0,0.,24.0,0.,24.0,0.,24.0
1980-11-15 06:43:08.480 ,3,1,0.,24.0,0.,24.0,0.,24.0,0.,24.0
1980-11-15 06:43:32.480 ,3,0,0.,24.0,0.,24.0,0.,24.0,0.,24.0
1980-11-15 06:43:56.480 ,4,1,0.,24.0,0.,24.0,0.,24.0,0.,24.0
1980-11-15 06:44:20.480 ,4,0,0.,24.0,0.,24.0,0.,24.0,0.,24.0
1980-11-15 06:44:44.480 ,5,1,0.,24.0,0.,24.0,0.,24.0,0.,24.0
1980-11-15 06:45:08.480 ,5,0,0.,24.0,0.,24.0,0.,24.0,0.,24.0
1980-11-15 06:45:32.480 ,6,1,1.,24.0,0.,24.0,0.,24.0,0.,24.0
1980-11-15 06:45:56.480 ,6,0,0.,24.0,0.,24.0,0.,24.0,0.,24.0
1980-11-15 06:46:20.480 ,7,1,0.,24.0,0.,24.0,0.,24.0,0.,24.0
1980-11-15 06:46:44.480 ,7,0,0.,24.0,0.,24.0,0.,24.0,0.,24.0
1980-11-15 06:47:08.480 ,7,1,0.,24.0,0.,24.0,0.,24.0,0.,24.0
1980-11-15 06:47:32.480 ,7,0,0.,24.0,0.,24.0,0.,24.0,0.,24.0
1980-11-15 06:47:56.480 ,6,1,0.,24.0,0.,24.0,0.,24.0,0.,24.0
1980-11-15 06:48:20.480 ,6,0,0.,24.0,0.,24.0,0.,24.0,0.,24.0
1980-11-15 06:48:44.480 ,5,1,0.,24.0,0.,24.0,0.,24.0,0.,24.0
1980-11-15 06:49:08.480 ,5,0,0.,24.0,0.,24.0,0.,24.0,0.,24.0
1980-11-15 06:49:32.480 ,4,1,0.,24.0,0.,24.0,0.,24.0,0.,24.0
1980-11-15 06:49:56.480 ,4,0,0.,24.0,0.,24.0,0.,24.0,0.,24.0
1980-11-15 06:50:20.480 ,3,1,0.,24.0,0.,24.0,0.,24.0,0.,24.0
1980-11-15 06:50:44.480 ,3,0,0.,24.0,0.,24.0,0.,24.0,0.,24.0
1980-11-15 06:51:08.480 ,2,1,0.,24.0,0.,24.0,0.,24.0,0.,24.0
1980-11-15 06:51:32.480 ,2,0,0.,24.0,0.,24.0,0.,24.0,0.,24.0
1980-11-15 06:51:56.480 ,1,1,0.,24.0,0.,24.0,0.,24.0,0.,24.0
1980-11-15 06:52:20.480 ,1,0,0.,24.0,0.,24.0,0.,24.0,0.,24.0
1980-11-15 06:52:44.480 ,0,1,0.,24.0,0.,24.0,0.,24.0,0.,24.0
1980-11-15 06:53:08.480 ,0,0,0.,24.0,0.,24.0,0.,24.0,0.,24.0
1980-11-15 06:53:32.480 ,0,1,0.,24.0,0.,24.0,0.,24.0,0.,24.0
1980-11-15 06:53:56.480 ,0,0,0.,24.0,0.,24.0,0.,24.0,0.,24.0
1980-11-15 06:54:20.480 ,1,1,0.,24.0,0.,24.0,0.,24.0,0.,24.0
1980-11-15 06:54:44.480 ,1,0,0.,24.0,0.,24.0,0.,24.0,0.,24.0
1980-11-15 06:55:08.480 ,2,1,0.,24.0,0.,24.0,0.,24.0,0.,24.0
1980-11-15 06:55:32.480 ,2,0,0.,24.0,0.,24.0,0.,24.0,0.,24.0
1980-11-15 06:55:56.480 ,3,1,0.,24.0,0.,24.0,0.,24.0,0.,24.0
1980-11-15 06:56:20.480 ,3,0,0.,24.0,0.,24.0,0.,24.0,0.,24.0
1980-11-15 06:56:44.480 ,4,1,0.,24.0,0.,24.0,0.,24.0,0.,24.0
1980-11-15 06:57:08.480 ,4,0,0.,24.0,0.,24.0,0.,24.0,0.,24.0
1980-11-15 06:57:32.480 ,5,1,0.,24.0,0.,24.0,0.,24.0,0.,24.0
1980-11-15 06:57:56.480 ,0,0,0.,24.0,0.,24.0,0.,24.0,0.,24.0
1980-11-15 07:00:06.680 ,0,0,,0,,0,,0,,0
1980-11-15 07:00:20.480 ,0,0,0.,24.0,0.,24.0,0.,24.0,0.,24.0
1980-11-15 07:00:44.480 ,6,1,0.,24.0,0.,24.0,0.,24.0,0.,24.0
1980-11-15 07:01:08.480 ,6,0,0.,24.0,0.,24.0,0.,24.0,0.,24.0
1980-11-15 07:01:32.480 ,5,1,0.,24.0,0.,24.0,0.,24.0,0.,24.0
1980-11-15 07:01:56.480 ,5,0,0.,24.0,0.,24.0,0.,24.0,0.,24.0
1980-11-15 07:02:20.480 ,4,1,0.,24.0,0.,24.0,0.,24.0,0.,24.0
1980-11-15 07:02:44.480 ,4,0,0.,24.0,0.,24.0,0.,24.0,0.,24.0
1980-11-15 07:03:08.480 ,3,1,0.,24.0,0.,24.0,0.,24.0,0.,24.0
1980-11-15 07:03:32.480 ,3,0,0.,24.0,0.,24.0,0.,24.0,0.,24.0
1980-11-15 07:03:56.480 ,2,1,0.,24.0,0.,24.0,0.,24.0,0.,24.0
1980-11-15 07:04:20.480 ,2,0,0.,24.0,0.,24.0,0.,24.0,0.,24.0
1980-11-15 07:04:44.480 ,1,1,0.,24.0,0.,24.0,0.,24.0,0.,24.0
1980-11-15 07:05:08.480 ,1,0,0.,24.0,0.,24.0,0.,24.0,0.,24.0
1980-11-15 07:05:32.480 ,0,1,0.,24.0,0.,24.0,0.,24.0,0.,24.0
1980-11-15 07:05:56.480 ,0,0,0.,24.0,0.,24.0,0.,24.0,0.,24.0
1980-11-15 07:06:20.480 ,0,1,0.,24.0,0.,24.0,0.,24.0,0.,24.0
1980-11-15 07:06:44.480 ,0,0,0.,24.0,0.,24.0,0.,24.0,0.,24.0
1980-11-15 07:07:08.480 ,1,1,0.,24.0,0.,24.0,0.,24.0,0.,24.0
1980-11-15 07:07:32.480 ,1,0,0.,24.0,0.,24.0,0.,24.0,0.,24.0
1980-11-15 07:07:56.480 ,2,1,0.,24.0,0.,24.0,0.,24.0,0.,24.0
1980-11-15 07:08:20.480 ,2,0,0.,24.0,0.,24.0,0.,24.0,0.,24.0
1980-11-15 07:08:44.480 ,3,1,0.,24.0,0.,24.0,0.,24.0,0.,24.0
1980-11-15 07:09:08.480 ,3,0,0.,24.0,0.,24.0,0.,24.0,0.,24.0
1980-11-15 07:09:32.480 ,4,1,0.,24.0,0.,24.0,0.,24.0,0.,24.0
1980-11-15 07:09:56.480 ,4,0,0.,24.0,0.,24.0,0.,24.0,0.,24.0
1980-11-15 07:10:20.480 ,5,1,0.,24.0,0.,24.0,0.,24.0,0.,24.0
1980-11-15 07:10:44.480 ,5,0,0.,24.0,0.,24.0,0.,24.0,0.,24.0
1980-11-15 07:11:08.480 ,6,1,0.,24.0,0.,24.0,0.,24.0,0.,24.0
1980-11-15 07:11:32.480 ,6,0,0.,24.0,0.,24.0,0.,24.0,0.,24.0
1980-11-15 07:11:56.480 ,7,1,0.,24.0,0.,24.0,0.,24.0,0.,24.0
1980-11-15 07:12:20.480 ,7,0,0.,24.0,0.,24.0,0.,24.0,0.,24.0
1980-11-15 07:12:44.480 ,7,1,0.,24.0,0.,24.0,0.,24.0,0.,24.0
1980-11-15 07:13:08.480 ,7,0,0.,24.0,0.,24.0,0.,24.0,0.,24.0
1980-11-15 07:13:32.480 ,6,1,0.,24.0,0.,24.0,0.,24.0,0.,24.0
1980-11-15 07:13:56.480 ,6,0,0.,24.0,0.,24.0,0.,24.0,0.,24.0
1980-11-15 07:14:20.490 ,5,1,0.,24.0,0.,24.0,0.,24.0,0.,24.0
1980-11-15 07:14:44.490 ,5,0,0.,24.0,0.,24.0,0.,24.0,0.,24.0
1980-11-15 07:15:08.490 ,4,1,0.,24.0,0.,24.0,0.,24.0,0.,24.0
1980-11-15 07:15:32.490 ,4,0,0.,24.0,0.,24.0,0.,24.0,0.,24.0
1980-11-15 07:15:56.490 ,3,1,0.,24.0,0.,24.0,0.,24.0,0.,24.0
1980-11-15 07:16:20.490 ,3,0,0.,24.0,0.,24.0,0.,24.0,0.,24.0
1980-11-15 07:16:44.490 ,2,1,0.,24.0,0.,24.0,0.,24.0,0.,24.0
1980-11-15 07:17:08.480 ,2,0,0.,24.0,0.,24.0,0.,24.0,0.,24.0
1980-11-15 07:17:32.480 ,1,1,0.,24.0,0.,24.0,0.,24.0,0.,24.0
1980-11-15 07:17:56.480 ,1,0,0.,24.0,0.,24.0,0.,24.0,0.,24.0
1980-11-15 07:18:20.480 ,0,1,0.,24.0,0.,24.0,0.,24.0,0.,24.0
1980-11-15 07:18:44.480 ,0,0,0.,24.0,0.,24.0,0.,24.0,0.,24.0
1980-11-15 07:19:08.480 ,0,1,0.,24.0,0.,24.0,0.,24.0,0.,24.0
1980-11-15 07:19:32.480 ,0,0,0.,24.0,0.,24.0,0.,24.0,0.,24.0
1980-11-15 07:19:56.480 ,1,1,0.,24.0,0.,24.0,0.,24.0,0.,24.0
1980-11-15 07:20:20.480 ,1,0,0.,24.0,0.,24.0,0.,24.0,0.,24.0
1980-11-15 07:20:44.480 ,2,1,0.,24.0,0.,24.0,0.,24.0,0.,24.0
1980-11-15 07:21:08.480 ,2,0,1.,24.0,0.,24.0,0.,24.0,0.,24.0
1980-11-15 07:21:32.480 ,3,1,0.,24.0,0.,24.0,0.,24.0,0.,24.0
1980-11-15 07:21:56.480 ,3,0,0.,24.0,0.,24.0,0.,24.0,0.,24.0
1980-11-15 07:22:20.480 ,4,1,0.,24.0,0.,24.0,0.,24.0,0.,24.0
1980-11-15 07:22:44.480 ,4,0,0.,24.0,0.,24.0,0.,24.0,0.,24.0
1980-11-15 07:23:08.480 ,5,1,0.,24.0,0.,24.0,0.,24.0,0.,24.0
1980-11-15 07:23:32.480 ,5,0,0.,24.0,0.,24.0,0.,24.0,0.,24.0
1980-11-15 07:23:56.480 ,6,1,0.,24.0,0.,24.0,0.,24.0,0.,24.0
1980-11-15 07:24:20.480 ,6,0,0.,24.0,0.,24.0,0.,24.0,0.,24.0
1980-11-15 07:24:44.480 ,7,1,0.,24.0,0.,24.0,0.,24.0,0.,24.0
1980-11-15 07:25:08.480 ,7,0,0.,24.0,0.,24.0,0.,24.0,0.,24.0
1980-11-15 07:25:32.480 ,7,1,0.,24.0,0.,24.0,0.,24.0,0.,24.0
1980-11-15 07:25:56.480 ,7,0,0.,24.0,0.,24.0,0.,24.0,0.,24.0
1980-11-15 07:26:20.480 ,6,1,0.,24.0,0.,24.0,0.,24.0,0.,24.0
1980-11-15 07:26:44.480 ,6,0,0.,24.0,0.,24.0,0.,24.0,0.,24.0
1980-11-15 07:27:08.480 ,5,1,0.,24.0,0.,24.0,0.,24.0,0.,24.0
1980-11-15 07:27:32.480 ,5,0,0.,24.0,0.,24.0,0.,24.0,0.,24.0
1980-11-15 07:27:56.480 ,4,1,0.,24.0,0.,24.0,0.,24.0,0.,24.0
1980-11-15 07:28:20.480 ,4,0,0.,24.0,0.,24.0,0.,24.0,0.,24.0
1980-11-15 07:28:44.480 ,3,1,0.,24.0,0.,24.0,0.,24.0,0.,24.0
1980-11-15 07:29:08.480 ,3,0,0.,24.0,0.,24.0,0.,24.0,0.,24.0
1980-11-15 07:29:32.480 ,2,1,0.,24.0,0.,24.0,0.,24.0,0.,24.0
1980-11-15 07:29:56.480 ,2,0,0.,24.0,0.,24.0,0.,24.0,0.,24.0
1980-11-15 07:30:20.480 ,1,1,0.,24.0,0.,24.0,0.,24.0,0.,24.0
1980-11-15 07:30:44.480 ,1,0,0.,24.0,0.,24.0,0.,24.0,0.,24.0
1980-11-15 07:31:08.480 ,0,1,0.,24.0,0.,24.0,0.,24.0,0.,24.0
1980-11-15 07:31:32.480 ,0,0,0.,24.0,0.,24.0,0.,24.0,0.,24.0
1980-11-15 07:31:56.480 ,0,1,0.,24.0,0.,24.0,0.,24.0,0.,24.0
1980-11-15 07:32:20.480 ,0,0,0.,24.0,0.,24.0,0.,24.0,0.,24.0
1980-11-15 07:35:56.480 ,0,0,0.,24.0,0.,24.0,0.,24.0,0.,24.0
1980-11-15 07:36:20.480 ,0,0,0.,24.0,0.,24.0,0.,24.0,0.,24.0
1980-11-15 07:36:44.480 ,6,1,0.,24.0,0.,24.0,0.,24.0,0.,24.0
1980-11-15 07:37:08.480 ,6,0,0.,24.0,0.,24.0,0.,24.0,0.,24.0
1980-11-15 07:37:32.480 ,7,1,0.,24.0,0.,24.0,0.,24.0,0.,24.0
1980-11-15 07:37:56.480 ,7,0,0.,24.0,0.,24.0,0.,24.0,0.,24.0
1980-11-15 07:38:20.480 ,7,1,0.,24.0,0.,24.0,0.,24.0,0.,24.0
1980-11-15 07:38:44.480 ,7,0,0.,24.0,0.,24.0,0.,24.0,0.,24.0
1980-11-15 07:39:08.480 ,6,1,0.,24.0,0.,24.0,0.,24.0,0.,24.0
1980-11-15 07:39:32.480 ,6,0,0.,24.0,0.,24.0,0.,24.0,0.,24.0
1980-11-15 07:39:56.480 ,5,1,0.,24.0,0.,24.0,0.,24.0,0.,24.0
1980-11-15 07:40:20.480 ,5,0,0.,24.0,0.,24.0,0.,24.0,0.,24.0
1980-11-15 07:40:44.480 ,4,1,0.,24.0,0.,24.0,0.,24.0,0.,24.0
1980-11-15 07:41:08.480 ,4,0,0.,24.0,0.,24.0,0.,24.0,0.,24.0
1980-11-15 07:41:32.480 ,3,1,0.,24.0,0.,24.0,0.,24.0,0.,24.0
1980-11-15 07:41:56.480 ,3,0,0.,24.0,0.,24.0,0.,24.0,0.,24.0
1980-11-15 07:42:20.480 ,2,1,0.,24.0,0.,24.0,0.,24.0,0.,24.0
1980-11-15 07:42:44.480 ,2,0,0.,24.0,0.,24.0,0.,24.0,0.,24.0
1980-11-15 07:43:08.480 ,1,1,0.,24.0,0.,24.0,0.,24.0,0.,24.0
1980-11-15 07:43:32.480 ,1,0,0.,24.0,0.,24.0,0.,24.0,0.,24.0
1980-11-15 07:43:56.480 ,0,1,0.,24.0,0.,24.0,0.,24.0,0.,24.0
1980-11-15 07:44:20.480 ,0,0,0.,24.0,0.,24.0,0.,24.0,0.,24.0
1980-11-15 07:44:44.480 ,0,1,0.,24.0,0.,24.0,0.,24.0,0.,24.0
1980-11-15 07:45:08.480 ,0,0,0.,24.0,0.,24.0,0.,24.0,0.,24.0
1980-11-15 07:45:32.480 ,1,1,0.,24.0,0.,24.0,0.,24.0,0.,24.0
1980-11-15 07:45:56.480 ,1,0,0.,24.0,0.,24.0,0.,24.0,0.,24.0
1980-11-15 07:46:20.480 ,2,1,1.,24.0,0.,24.0,0.,24.0,0.,24.0
1980-11-15 07:46:44.480 ,2,0,0.,24.0,0.,24.0,0.,24.0,0.,24.0
1980-11-15 07:47:56.480 ,0,0,0.,24.0,0.,24.0,0.,24.0,0.,24.0
1980-11-15 07:48:20.480 ,0,0,0.,24.0,0.,24.0,0.,24.0,0.,24.0
1980-11-15 07:48:44.480 ,5,1,0.,24.0,0.,24.0,0.,24.0,0.,24.0
1980-11-15 07:49:08.480 ,5,0,0.,24.0,0.,24.0,0.,24.0,0.,24.0
1980-11-15 07:49:32.480 ,6,1,0.,24.0,0.,24.0,0.,24.0,0.,24.0
1980-11-15 07:49:56.480 ,6,0,0.,24.0,0.,24.0,0.,24.0,0.,24.0
1980-11-15 07:50:20.480 ,7,1,0.,24.0,0.,24.0,0.,24.0,0.,24.0
1980-11-15 07:50:44.480 ,7,0,0.,24.0,0.,24.0,0.,24.0,0.,24.0
1980-11-15 07:51:08.480 ,7,1,0.,24.0,0.,24.0,0.,24.0,0.,24.0
1980-11-15 07:51:32.480 ,7,0,0.,24.0,0.,24.0,0.,24.0,0.,24.0
1980-11-15 07:51:56.480 ,6,1,0.,24.0,0.,24.0,0.,24.0,0.,24.0
1980-11-15 07:52:20.480 ,6,0,0.,24.0,0.,24.0,0.,24.0,0.,24.0
1980-11-15 07:52:44.480 ,5,1,0.,24.0,0.,24.0,0.,24.0,0.,24.0
1980-11-15 07:53:08.480 ,5,0,0.,24.0,0.,24.0,0.,24.0,0.,24.0
1980-11-15 07:53:32.480 ,4,1,0.,24.0,0.,24.0,0.,24.0,0.,24.0
1980-11-15 07:53:56.480 ,4,0,0.,24.0,0.,24.0,0.,24.0,0.,24.0
1980-11-15 07:54:20.480 ,3,1,0.,24.0,0.,24.0,0.,24.0,0.,24.0
1980-11-15 07:54:44.480 ,3,0,0.,24.0,0.,24.0,0.,24.0,0.,24.0
1980-11-15 07:55:08.480 ,2,1,0.,24.0,0.,24.0,0.,24.0,0.,24.0
1980-11-15 07:55:32.480 ,2,0,0.,24.0,0.,24.0,0.,24.0,0.,24.0
1980-11-15 07:55:56.480 ,1,1,0.,24.0,0.,24.0,0.,24.0,0.,24.0
1980-11-15 07:56:20.480 ,1,0,0.,24.0,0.,24.0,0.,24.0,0.,24.0
1980-11-15 07:35:56.480 ,0,0,0.,24.0,0.,24.0,0.,24.0,0.,24.0
1980-11-15 07:36:20.480 ,0,0,0.,24.0,0.,24.0,0.,24.0,0.,24.0
1980-11-15 07:36:44.480 ,6,1,0.,24.0,0.,24.0,0.,24.0,0.,24.0
1980-11-15 07:37:08.480 ,6,0,0.,24.0,0.,24.0,0.,24.0,0.,24.0
1980-11-15 07:37:32.480 ,7,1,0.,24.0,0.,24.0,0.,24.0,0.,24.0
1980-11-15 07:37:56.480 ,7,0,0.,24.0,0.,24.0,0.,24.0,0.,24.0
1980-11-15 07:38:20.480 ,7,1,0.,24.0,0.,24.0,0.,24.0,0.,24.0
1980-11-15 07:38:44.480 ,7,0,0.,24.0,0.,24.0,0.,24.0,0.,24.0
1980-11-15 07:39:08.480 ,6,1,0.,24.0,0.,24.0,0.,24.0,0.,24.0
1980-11-15 07:39:32.480 ,6,0,0.,24.0,0.,24.0,0.,24.0,0.,24.0
1980-11-15 07:39:56.480 ,5,1,0.,24.0,0.,24.0,0.,24.0,0.,24.0
1980-11-15 07:40:20.480 ,5,0,0.,24.0,0.,24.0,0.,24.0,0.,24.0
1980-11-15 07:40:44.480 ,4,1,0.,24.0,0.,24.0,0.,24.0,0.,24.0
1980-11-15 07:41:08.480 ,4,0,0.,24.0,0.,24.0,0.,24.0,0.,24.0
1980-11-15 07:41:32.480 ,3,1,0.,24.0,0.,24.0,0.,24.0,0.,24.0
1980-11-15 07:41:56.480 ,3,0,0.,24.0,0.,24.0,0.,24.0,0.,24.0
1980-11-15 07:42:20.480 ,2,1,0.,24.0,0.,24.0,0.,24.0,0.,24.0
1980-11-15 07:42:44.480 ,2,0,0.,24.0,0.,24.0,0.,24.0,0.,24.0
1980-11-15 07:43:08.480 ,1,1,0.,24.0,0.,24.0,0.,24.0,0.,24.0
1980-11-15 07:43:32.480 ,1,0,0.,24.0,0.,24.0,0.,24.0,0.,24.0
1980-11-15 07:43:56.480 ,0,1,0.,24.0,0.,24.0,0.,24.0,0.,24.0
1980-11-15 07:44:20.480 ,0,0,0.,24.0,0.,24.0,0.,24.0,0.,24.0
1980-11-15 07:44:44.480 ,0,1,0.,24.0,0.,24.0,0.,24.0,0.,24.0
1980-11-15 07:45:08.480 ,0,0,0.,24.0,0.,24.0,0.,24.0,0.,24.0
1980-11-15 07:45:32.480 ,1,1,0.,24.0,0.,24.0,0.,24.0,0.,24.0
1980-11-15 07:45:56.480 ,1,0,0.,24.0,0.,24.0,0.,24.0,0.,24.0
1980-11-15 07:46:20.480 ,2,1,1.,24.0,0.,24.0,0.,24.0,0.,24.0
1980-11-15 07:46:44.480 ,2,0,0.,24.0,0.,24.0,0.,24.0,0.,24.0
1980-11-15 07:47:08.480 ,3,1,0.,24.0,0.,24.0,0.,24.0,0.,24.0
1980-11-15 07:47:32.480 ,3,0,0.,24.0,0.,24.0,0.,24.0,0.,24.0
1980-11-15 07:47:56.480 ,4,1,0.,24.0,0.,24.0,0.,24.0,0.,24.0
1980-11-15 07:48:20.480 ,4,0,0.,24.0,0.,24.0,0.,24.0,0.,24.0
1980-11-15 07:48:44.480 ,5,1,0.,24.0,0.,24.0,0.,24.0,0.,24.0
1980-11-15 07:49:08.480 ,5,0,0.,24.0,0.,24.0,0.,24.0,0.,24.0
1980-11-15 07:49:32.480 ,6,1,0.,24.0,0.,24.0,0.,24.0,0.,24.0
1980-11-15 07:49:56.480 ,6,0,0.,24.0,0.,24.0,0.,24.0,0.,24.0
1980-11-15 07:50:20.480 ,7,1,0.,24.0,0.,24.0,0.,24.0,0.,24.0
1980-11-15 07:50:44.480 ,7,0,0.,24.0,0.,24.0,0.,24.0,0.,24.0
1980-11-15 07:51:08.480 ,7,1,0.,24.0,0.,24.0,0.,24.0,0.,24.0
1980-11-15 07:51:32.480 ,7,0,0.,24.0,0.,24.0,0.,24.0,0.,24.0
1980-11-15 07:51:56.480 ,6,1,0.,24.0,0.,24.0,0.,24.0,0.,24.0
1980-11-15 07:52:20.480 ,6,0,0.,24.0,0.,24.0,0.,24.0,0.,24.0
1980-11-15 07:52:44.480 ,5,1,0.,24.0,0.,24.0,0.,24.0,0.,24.0
1980-11-15 07:53:08.480 ,5,0,0.,24.0,0.,24.0,0.,24.0,0.,24.0
1980-11-15 07:53:32.480 ,4,1,0.,24.0,0.,24.0,0.,24.0,0.,24.0
1980-11-15 07:53:56.480 ,4,0,0.,24.0,0.,24.0,0.,24.0,0.,24.0
1980-11-15 07:54:20.480 ,3,1,0.,24.0,0.,24.0,0.,24.0,0.,24.0
1980-11-15 07:54:44.480 ,3,0,0.,24.0,0.,24.0,0.,24.0,0.,24.0
1980-11-15 07:55:08.480 ,2,1,0.,24.0,0.,24.0,0.,24.0,0.,24.0
1980-11-15 07:55:32.480 ,2,0,0.,24.0,0.,24.0,0.,24.0,0.,24.0
1980-11-15 07:55:56.480 ,1,1,0.,24.0,0.,24.0,0.,24.0,0.,24.0
1980-11-15 07:56:20.480 ,1,0,0.,24.0,0.,24.0,0.,24.0,0.,24.0
1980-11-15 07:56:44.480 ,0,1,0.,24.0,0.,24.0,0.,24.0,0.,24.0
1980-11-15 07:57:08.480 ,0,0,0.,24.0,0.,24.0,0.,24.0,0.,24.0
1980-11-15 07:57:32.480 ,0,1,0.,24.0,0.,24.0,0.,24.0,0.,24.0
1980-11-15 07:57:56.480 ,0,0,0.,24.0,0.,24.0,0.,24.0,0.,24.0
1980-11-15 07:58:20.480 ,1,1,0.,24.0,0.,24.0,0.,24.0,0.,24.0
1980-11-15 07:58:44.480 ,1,0,0.,24.0,0.,24.0,0.,24.0,0.,24.0
1980-11-15 07:59:08.480 ,2,1,0.,24.0,0.,24.0,0.,24.0,0.,24.0
1980-11-15 07:59:32.480 ,2,0,0.,24.0,0.,24.0,0.,24.0,0.,24.0
1980-11-15 07:59:56.480 ,3,1,0.,24.0,0.,24.0,0.,24.0,0.,24.0
1980-11-15 08:00:20.490 ,3,0,0.,24.0,0.,24.0,0.,24.0,0.,24.0
1980-11-15 08:00:44.490 ,4,1,0.,24.0,0.,24.0,0.,24.0,0.,24.0
1980-11-15 08:01:08.490 ,4,0,0.,24.0,0.,24.0,0.,24.0,0.,24.0
1980-11-15 08:01:32.490 ,5,1,0.,24.0,0.,24.0,0.,24.0,0.,24.0
1980-11-15 08:01:56.490 ,5,0,0.,24.0,0.,24.0,0.,24.0,0.,24.0
1980-11-15 08:02:20.490 ,6,1,0.,24.0,0.,24.0,0.,24.0,0.,24.0
1980-11-15 08:02:44.490 ,6,0,0.,24.0,0.,24.0,0.,24.0,0.,24.0
1980-11-15 08:03:08.490 ,7,1,0.,24.0,0.,24.0,0.,24.0,0.,24.0
1980-11-15 08:03:32.490 ,7,0,0.,24.0,0.,24.0,0.,24.0,0.,24.0
1980-11-15 08:03:56.490 ,7,1,0.,24.0,0.,24.0,0.,24.0,0.,24.0
1980-11-15 08:04:20.490 ,7,0,0.,24.0,0.,24.0,0.,24.0,0.,24.0
1980-11-15 08:04:44.480 ,6,1,0.,24.0,0.,24.0,0.,24.0,0.,24.0
1980-11-15 08:05:08.480 ,6,0,0.,24.0,0.,24.0,0.,24.0,0.,24.0
1980-11-15 08:05:32.480 ,5,1,0.,24.0,0.,24.0,0.,24.0,0.,24.0
1980-11-15 08:05:56.480 ,5,0,0.,24.0,0.,24.0,0.,24.0,0.,24.0
1980-11-15 08:06:20.480 ,4,1,0.,24.0,0.,24.0,0.,24.0,0.,24.0
1980-11-15 08:06:44.480 ,4,0,0.,24.0,0.,24.0,0.,24.0,0.,24.0
1980-11-15 08:07:08.480 ,3,1,0.,24.0,0.,24.0,0.,24.0,0.,24.0
1980-11-15 08:07:32.480 ,3,0,0.,24.0,0.,24.0,0.,24.0,0.,24.0
1980-11-15 08:07:56.480 ,2,1,1.,24.0,0.,24.0,0.,24.0,0.,24.0
1980-11-15 08:08:20.480 ,2,0,0.,24.0,0.,24.0,0.,24.0,0.,24.0
1980-11-15 08:08:44.490 ,1,1,0.,24.0,0.,24.0,0.,24.0,0.,24.0
1980-11-15 08:09:08.490 ,1,0,0.,24.0,0.,24.0,0.,24.0,0.,24.0
1980-11-15 08:09:32.490 ,0,1,0.,24.0,0.,24.0,0.,24.0,0.,24.0
1980-11-15 08:09:56.490 ,0,0,0.,24.0,0.,24.0,0.,24.0,0.,24.0
1980-11-15 08:10:20.490 ,0,1,0.,24.0,0.,24.0,0.,24.0,0.,24.0
1980-11-15 08:10:44.490 ,0,0,0.,24.0,0.,24.0,0.,24.0,0.,24.0
1980-11-15 08:11:08.490 ,1,1,0.,24.0,0.,24.0,0.,24.0,0.,24.0
1980-11-15 08:11:32.490 ,1,0,0.,24.0,0.,24.0,0.,24.0,0.,24.0
1980-11-15 08:11:56.490 ,2,1,0.,24.0,0.,24.0,0.,24.0,0.,24.0
1980-11-15 08:12:20.490 ,2,0,0.,24.0,0.,24.0,0.,24.0,0.,24.0
1980-11-15 08:12:44.490 ,3,1,0.,24.0,0.,24.0,0.,24.0,0.,24.0
1980-11-15 08:13:08.490 ,3,0,0.,24.0,0.,24.0,0.,24.0,0.,24.0
1980-11-15 08:13:32.490 ,4,1,0.,24.0,0.,24.0,0.,24.0,0.,24.0
1980-11-15 08:13:56.490 ,4,0,0.,24.0,0.,24.0,0.,24.0,0.,24.0
1980-11-15 08:14:20.490 ,5,1,0.,24.0,0.,24.0,0.,24.0,0.,24.0
1980-11-15 08:14:44.490 ,5,0,0.,24.0,0.,24.0,0.,24.0,0.,24.0
1980-11-15 08:15:08.490 ,6,1,0.,24.0,0.,24.0,0.,24.0,0.,24.0
1980-11-15 08:15:32.490 ,6,0,0.,24.0,0.,24.0,0.,24.0,0.,24.0
1980-11-15 08:15:56.490 ,7,1,0.,24.0,0.,24.0,0.,24.0,0.,24.0
1980-11-15 08:16:20.490 ,7,0,0.,24.0,0.,24.0,0.,24.0,0.,24.0
1980-11-15 08:16:44.490 ,7,1,0.,24.0,0.,24.0,0.,24.0,0.,24.0
1980-11-15 08:17:08.480 ,7,0,0.,24.0,0.,24.0,0.,24.0,0.,24.0
1980-11-15 08:17:32.480 ,6,1,0.,24.0,0.,24.0,0.,24.0,0.,24.0
1980-11-15 08:17:56.480 ,6,0,0.,24.0,0.,24.0,0.,24.0,0.,24.0
1980-11-15 08:18:20.480 ,5,1,0.,24.0,0.,24.0,0.,24.0,0.,24.0
1980-11-15 08:18:44.480 ,5,0,0.,24.0,0.,24.0,0.,24.0,0.,24.0
1980-11-15 08:19:08.480 ,4,1,0.,24.0,0.,24.0,0.,24.0,0.,24.0